FLX1992 SBSI-SBSP

Flight info

Callsign FLX1992
Flight time 2h 6m
Altitude 35000
Route OBKAV UZ40 OPMUS UZ87 PALCA UM411 UTLOT
Aircraft B738/M-SDE2E3FGHIRWXY/LB1

Departure

Time 2026-05-04 19:21
Airport Presidente João Batista Figueiredo Airport (SBSI)

Arrival

Time 2026-05-04 21:27
Airport Congonhas–Deputado Freitas Nobre Airport (SBSP)
Time Latitude Longitude Altitude Speed Heading
2026-05-04 19:00 -11.87801 -55.58252 1285 ft 0 kts 107°
2026-05-04 19:10 -11.87798 -55.58259 1290 ft 2 kts 107°
2026-05-04 19:11 -11.87792 -55.58275 1288 ft 2 kts 159°
2026-05-04 19:11 -11.87781 -55.58275 1289 ft 1 kts 195°
2026-05-04 19:11 -11.87780 -55.58275 1289 ft 0 kts 194°
2026-05-04 19:13 -11.87800 -55.58280 1287 ft 5 kts 190°
2026-05-04 19:14 -11.87834 -55.58290 1285 ft 5 kts 210°
2026-05-04 19:14 -11.87848 -55.58323 1286 ft 5 kts 268°
2026-05-04 19:14 -11.87841 -55.58368 1288 ft 7 kts 283°
2026-05-04 19:14 -11.87829 -55.58424 1282 ft 9 kts 276°
2026-05-04 19:15 -11.87870 -55.58464 1283 ft 9 kts 200°
2026-05-04 19:15 -11.87928 -55.58481 1284 ft 9 kts 194°
2026-05-04 19:15 -11.87985 -55.58496 1284 ft 9 kts 194°
2026-05-04 19:15 -11.88056 -55.58514 1286 ft 11 kts 194°
2026-05-04 19:16 -11.88128 -55.58534 1286 ft 10 kts 194°
2026-05-04 19:16 -11.88203 -55.58554 1287 ft 13 kts 194°
2026-05-04 19:16 -11.88286 -55.58576 1288 ft 12 kts 195°
2026-05-04 19:16 -11.88372 -55.58599 1289 ft 15 kts 194°
2026-05-04 19:17 -11.88482 -55.58628 1288 ft 17 kts 194°
2026-05-04 19:17 -11.88594 -55.58659 1288 ft 16 kts 195°
2026-05-04 19:17 -11.88702 -55.58689 1289 ft 16 kts 193°
2026-05-04 19:17 -11.88806 -55.58715 1289 ft 15 kts 194°
2026-05-04 19:18 -11.88872 -55.58733 1289 ft 15 kts 195°
2026-05-04 19:18 -11.88969 -55.58759 1289 ft 14 kts 195°
2026-05-04 19:18 -11.89062 -55.58784 1289 ft 13 kts 194°
2026-05-04 19:18 -11.89122 -55.58800 1289 ft 7 kts 193°
2026-05-04 19:19 -11.89166 -55.58793 1289 ft 7 kts 150°
2026-05-04 19:19 -11.89199 -55.58801 1288 ft 5 kts 263°
2026-05-04 19:19 -11.89170 -55.58811 1289 ft 0 kts
2026-05-04 19:20 -11.88896 -55.58740 1289 ft 81 kts 14°
2026-05-04 19:20 -11.88102 -55.58527 1286 ft 152 kts 15°
2026-05-04 19:20 -11.86934 -55.58201 1615 ft 186 kts 18°
2026-05-04 19:21 -11.85673 -55.57691 2296 ft 200 kts 38°
2026-05-04 19:21 -11.84906 -55.56553 3202 ft 200 kts 77°
2026-05-04 19:21 -11.84924 -55.55092 3638 ft 218 kts 101°
2026-05-04 19:21 -11.85226 -55.53523 3906 ft 234 kts 99°
2026-05-04 19:22 -11.85461 -55.51830 4342 ft 245 kts 95°
2026-05-04 19:22 -11.85621 -55.50114 4958 ft 248 kts 94°
2026-05-04 19:22 -11.85754 -55.48280 5330 ft 267 kts 93°
2026-05-04 19:22 -11.86035 -55.46394 6077 ft 270 kts 110°
2026-05-04 19:23 -11.87013 -55.44748 6829 ft 277 kts 133°
2026-05-04 19:23 -11.88459 -55.43441 7530 ft 283 kts 139°
2026-05-04 19:23 -11.90004 -55.42177 8258 ft 287 kts 140°
2026-05-04 19:23 -11.91588 -55.40904 8926 ft 293 kts 140°
2026-05-04 19:24 -11.93201 -55.39608 9648 ft 297 kts 140°
2026-05-04 19:24 -11.94835 -55.38288 10251 ft 304 kts 140°
2026-05-04 19:24 -11.96552 -55.36892 10448 ft 327 kts 140°
2026-05-04 19:24 -11.98390 -55.35392 10614 ft 348 kts 140°
2026-05-04 19:25 -12.00330 -55.33806 10876 ft 364 kts 140°
2026-05-04 19:25 -12.02327 -55.32173 11416 ft 369 kts 140°
2026-05-04 19:25 -12.04331 -55.30531 12075 ft 370 kts 140°
2026-05-04 19:25 -12.06323 -55.28847 12673 ft 373 kts 139°
2026-05-04 19:26 -12.08304 -55.27117 13256 ft 376 kts 139°
2026-05-04 19:26 -12.10291 -55.25364 13832 ft 378 kts 139°
2026-05-04 19:26 -12.12264 -55.23622 14308 ft 382 kts 139°
2026-05-04 19:26 -12.14282 -55.21845 14795 ft 385 kts 138°
2026-05-04 19:27 -12.16326 -55.20047 15272 ft 388 kts 138°
2026-05-04 19:27 -12.18379 -55.18245 15763 ft 391 kts 138°
2026-05-04 19:27 -12.20453 -55.16427 16228 ft 394 kts 138°
2026-05-04 19:27 -12.22550 -55.14592 16688 ft 397 kts 137°
2026-05-04 19:28 -12.24658 -55.12746 17148 ft 400 kts 137°
2026-05-04 19:28 -12.26778 -55.10889 17585 ft 403 kts 137°
2026-05-04 19:28 -12.28914 -55.09016 18003 ft 406 kts 137°
2026-05-04 19:28 -12.31072 -55.07125 18404 ft 409 kts 137°
2026-05-04 19:29 -12.33237 -55.05230 18820 ft 410 kts 137°
2026-05-04 19:29 -12.35380 -55.03352 19250 ft 410 kts 137°
2026-05-04 19:29 -12.37552 -55.01449 19648 ft 412 kts 137°
2026-05-04 19:29 -12.39735 -54.99536 20037 ft 414 kts 137°
2026-05-04 19:30 -12.41932 -54.97611 20446 ft 415 kts 137°
2026-05-04 19:30 -12.44129 -54.95685 20839 ft 416 kts 137°
2026-05-04 19:30 -12.46327 -54.93756 21221 ft 417 kts 137°
2026-05-04 19:30 -12.48533 -54.91819 21601 ft 419 kts 137°
2026-05-04 19:31 -12.50754 -54.89868 21971 ft 420 kts 137°
2026-05-04 19:31 -12.52982 -54.87912 22336 ft 422 kts 137°
2026-05-04 19:31 -12.55187 -54.85976 22711 ft 423 kts 137°
2026-05-04 19:31 -12.57420 -54.84015 23074 ft 424 kts 137°
2026-05-04 19:32 -12.59662 -54.82045 23398 ft 426 kts 137°
2026-05-04 19:32 -12.61923 -54.80059 23692 ft 427 kts 137°
2026-05-04 19:32 -12.64182 -54.78073 23945 ft 429 kts 138°
2026-05-04 19:32 -12.66454 -54.76075 24175 ft 431 kts 138°
2026-05-04 19:33 -12.68739 -54.74065 24414 ft 434 kts 138°
2026-05-04 19:33 -12.71032 -54.72048 24663 ft 435 kts 138°
2026-05-04 19:33 -12.73304 -54.70048 24904 ft 437 kts 138°
2026-05-04 19:33 -12.75615 -54.68014 25131 ft 439 kts 138°
2026-05-04 19:34 -12.77939 -54.65968 25360 ft 441 kts 139°
2026-05-04 19:34 -12.80272 -54.63913 25589 ft 443 kts 139°
2026-05-04 19:34 -12.82613 -54.61851 25811 ft 445 kts 139°
2026-05-04 19:34 -12.84964 -54.59778 26030 ft 446 kts 139°
2026-05-04 19:35 -12.87397 -54.57782 26248 ft 448 kts 145°
2026-05-04 19:35 -12.90069 -54.56136 26452 ft 450 kts 150°
2026-05-04 19:35 -12.92796 -54.54609 26670 ft 451 kts 151°
2026-05-04 19:35 -12.95564 -54.53087 26870 ft 453 kts 152°
2026-05-04 19:36 -12.98352 -54.51555 27060 ft 455 kts 152°
2026-05-04 19:36 -13.01144 -54.50010 27264 ft 456 kts 152°
2026-05-04 19:36 -13.03935 -54.48453 27462 ft 458 kts 152°
2026-05-04 19:36 -13.06733 -54.46884 27645 ft 459 kts 152°
2026-05-04 19:37 -13.09541 -54.45302 27838 ft 461 kts 152°
2026-05-04 19:37 -13.12350 -54.43717 28021 ft 462 kts 152°
2026-05-04 19:37 -13.15173 -54.42122 28215 ft 463 kts 152°
2026-05-04 19:37 -13.18003 -54.40523 28397 ft 465 kts 152°
2026-05-04 19:38 -13.20836 -54.38921 28575 ft 466 kts 152°
2026-05-04 19:38 -13.23682 -54.37310 28746 ft 468 kts 152°
2026-05-04 19:38 -13.26533 -54.35698 28901 ft 469 kts 152°
2026-05-04 19:38 -13.29398 -54.34078 29074 ft 470 kts 153°
2026-05-04 19:39 -13.32267 -54.32456 29293 ft 470 kts 153°
2026-05-04 19:39 -13.35126 -54.30838 29555 ft 469 kts 153°
2026-05-04 19:39 -13.37947 -54.29241 29830 ft 468 kts 153°
2026-05-04 19:39 -13.40836 -54.27603 30050 ft 468 kts 153°
2026-05-04 19:40 -13.43649 -54.26010 30249 ft 468 kts 153°
2026-05-04 19:40 -13.46504 -54.24392 30462 ft 468 kts 153°
2026-05-04 19:40 -13.49353 -54.22778 30678 ft 467 kts 153°
2026-05-04 19:40 -13.52210 -54.21159 30888 ft 467 kts 153°
2026-05-04 19:41 -13.55056 -54.19546 31103 ft 467 kts 153°
2026-05-04 19:41 -13.57909 -54.17928 31331 ft 467 kts 154°
2026-05-04 19:41 -13.60707 -54.16341 31554 ft 466 kts 153°
2026-05-04 19:41 -13.63550 -54.14728 31774 ft 466 kts 154°
2026-05-04 19:42 -13.66388 -54.13117 32008 ft 466 kts 154°
2026-05-04 19:42 -13.69217 -54.11511 32239 ft 465 kts 154°
2026-05-04 19:42 -13.72054 -54.09900 32479 ft 465 kts 154°
2026-05-04 19:42 -13.74888 -54.08290 32694 ft 465 kts 154°
2026-05-04 19:43 -13.77721 -54.06680 32926 ft 465 kts 154°
2026-05-04 19:43 -13.80548 -54.05073 33164 ft 464 kts 154°
2026-05-04 19:43 -13.83376 -54.03465 33411 ft 464 kts 154°
2026-05-04 19:43 -13.86206 -54.01855 33640 ft 464 kts 154°
2026-05-04 19:44 -13.89002 -54.00265 33830 ft 464 kts 154°
2026-05-04 19:44 -13.91830 -53.98656 34023 ft 464 kts 154°
2026-05-04 19:44 -13.94649 -53.97051 34252 ft 463 kts 154°
2026-05-04 19:44 -13.97467 -53.95447 34481 ft 462 kts 154°
2026-05-04 19:45 -14.00280 -53.93844 34669 ft 462 kts 154°
2026-05-04 19:45 -14.03091 -53.92243 34849 ft 461 kts 154°
2026-05-04 19:45 -14.05904 -53.90640 34920 ft 462 kts 154°
2026-05-04 19:46 -14.11544 -53.87425 34934 ft 462 kts 154°
2026-05-04 19:46 -14.17165 -53.84218 34935 ft 461 kts 154°
2026-05-04 19:47 -14.22766 -53.81021 34929 ft 460 kts 154°
2026-05-04 19:47 -14.28358 -53.77827 34936 ft 459 kts 154°
2026-05-04 19:48 -14.33914 -53.74652 34936 ft 459 kts 155°
2026-05-04 19:48 -14.39498 -53.71460 34940 ft 459 kts 155°
2026-05-04 19:49 -14.45152 -53.68409 34941 ft 457 kts 157°
2026-05-04 19:49 -14.50857 -53.65487 34945 ft 458 kts 157°
2026-05-04 19:50 -14.56549 -53.62516 34944 ft 459 kts 156°
2026-05-04 19:50 -14.62149 -53.59296 34946 ft 461 kts 154°
2026-05-04 19:51 -14.67691 -53.55943 34945 ft 462 kts 154°
2026-05-04 19:51 -14.73251 -53.52610 34945 ft 462 kts 154°
2026-05-04 19:52 -14.78828 -53.49300 34950 ft 462 kts 154°
2026-05-04 19:52 -14.84380 -53.46011 34948 ft 462 kts 154°
2026-05-04 19:53 -14.89962 -53.42700 34946 ft 462 kts 154°
2026-05-04 19:53 -14.95542 -53.39388 34947 ft 462 kts 154°
2026-05-04 19:54 -15.01114 -53.36078 34944 ft 462 kts 154°
2026-05-04 19:54 -15.06709 -53.32826 34944 ft 461 kts 155°
2026-05-04 19:55 -15.12320 -53.29616 34942 ft 460 kts 155°
2026-05-04 19:55 -15.17921 -53.26401 34946 ft 460 kts 155°
2026-05-04 19:56 -15.23511 -53.23180 34945 ft 459 kts 155°
2026-05-04 19:56 -15.29095 -53.19958 34947 ft 459 kts 155°
2026-05-04 19:57 -15.34669 -53.16740 34942 ft 458 kts 155°
2026-05-04 19:57 -15.40206 -53.13541 34945 ft 458 kts 155°
2026-05-04 19:58 -15.45773 -53.10324 34943 ft 458 kts 155°
2026-05-04 19:58 -15.51340 -53.07103 34942 ft 458 kts 155°
2026-05-04 19:59 -15.56918 -53.03870 34939 ft 459 kts 155°
2026-05-04 19:59 -15.62499 -53.00631 34941 ft 459 kts 156°
2026-05-04 20:00 -15.68085 -52.97389 34943 ft 460 kts 156°
2026-05-04 20:00 -15.73633 -52.94166 34945 ft 460 kts 156°
2026-05-04 20:01 -15.79223 -52.90917 34941 ft 461 kts 156°
2026-05-04 20:01 -15.84818 -52.87662 34947 ft 460 kts 156°
2026-05-04 20:02 -15.90412 -52.84406 34948 ft 460 kts 156°
2026-05-04 20:02 -15.95997 -52.81154 34944 ft 460 kts 156°
2026-05-04 20:03 -16.01580 -52.77900 34941 ft 459 kts 156°
2026-05-04 20:03 -16.07124 -52.74667 34947 ft 458 kts 156°
2026-05-04 20:04 -16.12680 -52.71425 34950 ft 457 kts 156°
2026-05-04 20:04 -16.18219 -52.68191 34954 ft 456 kts 156°
2026-05-04 20:05 -16.23756 -52.64957 34953 ft 456 kts 156°
2026-05-04 20:05 -16.29290 -52.61721 34951 ft 455 kts 156°
2026-05-04 20:06 -16.34768 -52.58516 34951 ft 455 kts 156°
2026-05-04 20:06 -16.40276 -52.55292 34953 ft 454 kts 156°
2026-05-04 20:07 -16.45779 -52.52068 34958 ft 454 kts 156°
2026-05-04 20:07 -16.51286 -52.48840 34960 ft 453 kts 156°
2026-05-04 20:08 -16.55856 -52.46159 34966 ft 453 kts 157°
2026-05-04 20:08 -16.61344 -52.42938 34951 ft 453 kts 157°
2026-05-04 20:09 -16.67723 -52.39194 34966 ft 452 kts 157°
2026-05-04 20:09 -16.72314 -52.36505 34967 ft 451 kts 157°
2026-05-04 20:10 -16.77791 -52.33294 34969 ft 451 kts 157°
2026-05-04 20:10 -16.83235 -52.30100 34975 ft 451 kts 157°
2026-05-04 20:11 -16.88712 -52.26883 34969 ft 451 kts 157°
2026-05-04 20:11 -16.94196 -52.23660 34970 ft 451 kts 157°
2026-05-04 20:12 -16.99681 -52.20433 34978 ft 451 kts 157°
2026-05-04 20:12 -17.05153 -52.17213 34980 ft 452 kts 157°
2026-05-04 20:13 -17.10612 -52.14035 34981 ft 452 kts 158°
2026-05-04 20:13 -17.16125 -52.10856 34986 ft 452 kts 158°
2026-05-04 20:14 -17.21634 -52.07673 34992 ft 452 kts 158°
2026-05-04 20:14 -17.27141 -52.04484 34991 ft 452 kts 158°
2026-05-04 20:15 -17.32650 -52.01288 34995 ft 452 kts 158°
2026-05-04 20:15 -17.38162 -51.98088 34994 ft 453 kts 158°
2026-05-04 20:16 -17.43666 -51.94891 35001 ft 453 kts 158°
2026-05-04 20:16 -17.49179 -51.91687 35004 ft 453 kts 158°
2026-05-04 20:17 -17.54658 -51.88501 34999 ft 454 kts 158°
2026-05-04 20:17 -17.60173 -51.85291 35007 ft 453 kts 158°
2026-05-04 20:18 -17.65700 -51.82072 35003 ft 454 kts 158°
2026-05-04 20:18 -17.71221 -51.78854 35002 ft 453 kts 158°
2026-05-04 20:19 -17.76740 -51.75634 35004 ft 453 kts 158°
2026-05-04 20:19 -17.82226 -51.72433 34997 ft 454 kts 158°
2026-05-04 20:20 -17.87745 -51.69209 35001 ft 453 kts 158°
2026-05-04 20:20 -17.93258 -51.65986 34994 ft 454 kts 158°
2026-05-04 20:21 -17.98782 -51.62756 34990 ft 454 kts 158°
2026-05-04 20:21 -18.07058 -51.57910 35000 ft 454 kts 158°
2026-05-04 20:22 -18.12581 -51.54673 34996 ft 454 kts 158°
2026-05-04 20:22 -18.18106 -51.51432 35002 ft 455 kts 158°
2026-05-04 20:23 -18.23598 -51.48208 34989 ft 455 kts 158°
2026-05-04 20:23 -18.29109 -51.44916 34992 ft 456 kts 157°
2026-05-04 20:24 -18.34587 -51.41504 34986 ft 457 kts 156°
2026-05-04 20:24 -18.40061 -51.38093 34993 ft 457 kts 156°
2026-05-04 20:25 -18.45511 -51.34714 34993 ft 457 kts 156°
2026-05-04 20:25 -18.51004 -51.31310 34987 ft 457 kts 156°
2026-05-04 20:26 -18.56489 -51.27909 34988 ft 457 kts 156°
2026-05-04 20:26 -18.61972 -51.24507 34992 ft 457 kts 156°
2026-05-04 20:27 -18.67458 -51.21100 34984 ft 457 kts 156°
2026-05-04 20:27 -18.72943 -51.17689 34984 ft 457 kts 156°
2026-05-04 20:28 -18.78425 -51.14278 34989 ft 457 kts 156°
2026-05-04 20:28 -18.83903 -51.10868 34990 ft 457 kts 156°
2026-05-04 20:29 -18.89346 -51.07476 34984 ft 457 kts 156°
2026-05-04 20:29 -18.94826 -51.04057 34987 ft 457 kts 156°
2026-05-04 20:30 -19.00303 -51.00639 34985 ft 457 kts 156°
2026-05-04 20:30 -19.05750 -50.97151 34984 ft 458 kts 155°
2026-05-04 20:31 -19.11167 -50.93584 34986 ft 459 kts 154°
2026-05-04 20:31 -19.16600 -50.90006 34982 ft 459 kts 155°
2026-05-04 20:32 -19.22033 -50.86439 34987 ft 460 kts 155°
2026-05-04 20:32 -19.27478 -50.82869 34982 ft 460 kts 155°
2026-05-04 20:33 -19.32893 -50.79315 34987 ft 461 kts 154°
2026-05-04 20:33 -19.38350 -50.75730 34981 ft 461 kts 154°
2026-05-04 20:34 -19.43808 -50.72142 34986 ft 461 kts 154°
2026-05-04 20:34 -19.49262 -50.68553 34989 ft 462 kts 154°
2026-05-04 20:35 -19.54729 -50.64953 34983 ft 462 kts 154°
2026-05-04 20:35 -19.60184 -50.61357 34990 ft 462 kts 154°
2026-05-04 20:36 -19.65647 -50.57754 34992 ft 462 kts 154°
2026-05-04 20:36 -19.71123 -50.54195 34996 ft 461 kts 155°
2026-05-04 20:37 -19.76621 -50.50663 34987 ft 462 kts 155°
2026-05-04 20:37 -19.82114 -50.47126 34990 ft 461 kts 155°
2026-05-04 20:38 -19.87565 -50.43603 34993 ft 461 kts 155°
2026-05-04 20:38 -19.93045 -50.40058 34995 ft 461 kts 155°
2026-05-04 20:39 -19.98519 -50.36513 34996 ft 461 kts 154°
2026-05-04 20:39 -20.03996 -50.32963 34994 ft 461 kts 154°
2026-05-04 20:40 -20.09474 -50.29411 34997 ft 461 kts 154°
2026-05-04 20:40 -20.14980 -50.25941 35002 ft 459 kts 156°
2026-05-04 20:41 -20.20549 -50.22675 35006 ft 459 kts 157°
2026-05-04 20:41 -20.26148 -50.19409 35002 ft 459 kts 157°
2026-05-04 20:42 -20.31738 -50.16112 35002 ft 459 kts 157°
2026-05-04 20:42 -20.37329 -50.12794 35002 ft 460 kts 156°
2026-05-04 20:43 -20.42912 -50.09471 35005 ft 460 kts 156°
2026-05-04 20:43 -20.48461 -50.06167 35003 ft 460 kts 156°
2026-05-04 20:44 -20.54058 -50.02833 35010 ft 460 kts 157°
2026-05-04 20:44 -20.59645 -49.99501 35004 ft 460 kts 156°
2026-05-04 20:45 -20.65243 -49.96161 35011 ft 460 kts 156°
2026-05-04 20:45 -20.70839 -49.92819 35005 ft 460 kts 156°
2026-05-04 20:46 -20.76424 -49.89480 35011 ft 460 kts 157°
2026-05-04 20:46 -20.82017 -49.86134 35009 ft 460 kts 157°
2026-05-04 20:47 -20.87612 -49.82784 35006 ft 460 kts 157°
2026-05-04 20:47 -20.93191 -49.79440 35010 ft 459 kts 157°
2026-05-04 20:48 -20.98724 -49.76122 35020 ft 459 kts 157°
2026-05-04 20:48 -21.04288 -49.72781 35010 ft 458 kts 157°
2026-05-04 20:49 -21.09842 -49.69444 35012 ft 457 kts 157°
2026-05-04 20:49 -21.15392 -49.66107 35006 ft 457 kts 157°
2026-05-04 20:50 -21.20934 -49.62771 35010 ft 456 kts 157°
2026-05-04 20:50 -21.26458 -49.59443 35012 ft 456 kts 157°
2026-05-04 20:51 -21.31987 -49.56110 35016 ft 455 kts 157°
2026-05-04 20:51 -21.37475 -49.52798 35018 ft 455 kts 157°
2026-05-04 20:52 -21.42997 -49.49463 35018 ft 455 kts 157°
2026-05-04 20:52 -21.48515 -49.46127 35021 ft 455 kts 158°
2026-05-04 20:53 -21.53999 -49.42809 35019 ft 454 kts 158°
2026-05-04 20:53 -21.59533 -49.39458 35023 ft 454 kts 158°
2026-05-04 20:54 -21.65032 -49.36125 35018 ft 454 kts 158°
2026-05-04 20:54 -21.70535 -49.32786 35014 ft 454 kts 158°
2026-05-04 20:55 -21.76017 -49.29457 35038 ft 454 kts 158°
2026-05-04 20:55 -21.81513 -49.26118 35033 ft 454 kts 158°
2026-05-04 20:56 -21.87009 -49.22774 35036 ft 454 kts 158°
2026-05-04 20:56 -21.91577 -49.19993 35037 ft 454 kts 158°
2026-05-04 20:57 -21.97074 -49.16643 35034 ft 454 kts 158°
2026-05-04 20:57 -22.02568 -49.13292 35045 ft 453 kts 158°
2026-05-04 20:58 -22.07917 -49.09636 35049 ft 465 kts 144°
2026-05-04 20:58 -22.10081 -49.06988 35077 ft 477 kts 131°
2026-05-04 20:58 -22.11674 -49.03801 35069 ft 490 kts 116°
2026-05-04 20:59 -22.13775 -48.96783 35080 ft 492 kts 113°
2026-05-04 20:59 -22.15918 -48.89767 35070 ft 492 kts 114°
2026-05-04 21:00 -22.18113 -48.82841 35067 ft 491 kts 115°
2026-05-04 21:00 -22.20329 -48.75864 35065 ft 491 kts 114°
2026-05-04 21:01 -22.22537 -48.68872 35054 ft 492 kts 114°
2026-05-04 21:01 -22.24740 -48.61873 35059 ft 492 kts 114°
2026-05-04 21:02 -22.26944 -48.54866 35062 ft 492 kts 114°
2026-05-04 21:02 -22.29132 -48.47898 35064 ft 493 kts 114°
2026-05-04 21:03 -22.31331 -48.40882 35061 ft 493 kts 114°
2026-05-04 21:03 -22.33530 -48.33854 35068 ft 493 kts 114°
2026-05-04 21:04 -22.34634 -48.30323 34659 ft 500 kts 114°
2026-05-04 21:04 -22.35749 -48.26757 34089 ft 500 kts 114°
2026-05-04 21:04 -22.36855 -48.23206 33600 ft 496 kts 114°
2026-05-04 21:04 -22.37950 -48.19681 33121 ft 491 kts 114°
2026-05-04 21:05 -22.39022 -48.16231 32669 ft 487 kts 114°
2026-05-04 21:05 -22.40097 -48.12774 32223 ft 483 kts 114°
2026-05-04 21:05 -22.41164 -48.09341 31773 ft 480 kts 114°
2026-05-04 21:05 -22.42221 -48.05941 31342 ft 476 kts 114°
2026-05-04 21:06 -22.43271 -48.02559 30908 ft 473 kts 114°
2026-05-04 21:06 -22.44316 -47.99192 30485 ft 470 kts 114°
2026-05-04 21:06 -22.45355 -47.95841 29997 ft 469 kts 114°
2026-05-04 21:06 -22.46386 -47.92511 29521 ft 465 kts 114°
2026-05-04 21:07 -22.47514 -47.89260 29006 ft 455 kts 123°
2026-05-04 21:07 -22.49264 -47.86497 28585 ft 439 kts 135°
2026-05-04 21:07 -22.51199 -47.83965 28128 ft 435 kts 136°
2026-05-04 21:07 -22.53111 -47.81501 27695 ft 432 kts 136°
2026-05-04 21:08 -22.55034 -47.79010 27257 ft 429 kts 136°
2026-05-04 21:08 -22.56930 -47.76531 26821 ft 426 kts 135°
2026-05-04 21:08 -22.58801 -47.74062 26399 ft 423 kts 135°
2026-05-04 21:08 -22.60642 -47.71617 25981 ft 420 kts 135°
2026-05-04 21:09 -22.62490 -47.69154 25557 ft 417 kts 134°
2026-05-04 21:09 -22.64317 -47.66716 25142 ft 415 kts 134°
2026-05-04 21:09 -22.66130 -47.64295 24703 ft 413 kts 134°
2026-05-04 21:09 -22.67934 -47.61886 24288 ft 411 kts 134°
2026-05-04 21:10 -22.69732 -47.59485 23858 ft 410 kts 134°
2026-05-04 21:10 -22.71526 -47.57087 23406 ft 408 kts 133°
2026-05-04 21:10 -22.73221 -47.54820 22963 ft 405 kts 133°
2026-05-04 21:10 -22.74990 -47.52453 22518 ft 402 kts 133°
2026-05-04 21:11 -22.76740 -47.50112 22113 ft 399 kts 133°
2026-05-04 21:11 -22.78481 -47.47781 21704 ft 396 kts 133°
2026-05-04 21:11 -22.80206 -47.45470 21304 ft 393 kts 133°
2026-05-04 21:11 -22.81918 -47.43175 20903 ft 391 kts 133°
2026-05-04 21:12 -22.83601 -47.40919 20494 ft 388 kts 133°
2026-05-04 21:12 -22.85292 -47.38650 20118 ft 386 kts 132°
2026-05-04 21:12 -22.86979 -47.36387 19699 ft 385 kts 132°
2026-05-04 21:12 -22.88662 -47.34127 19294 ft 384 kts 132°
2026-05-04 21:13 -22.89966 -47.32375 19002 ft 383 kts 132°
2026-05-04 21:13 -22.91639 -47.30128 18575 ft 382 kts 132°
2026-05-04 21:13 -22.93306 -47.27887 18135 ft 381 kts 131°
2026-05-04 21:13 -22.94967 -47.25652 17715 ft 379 kts 131°
2026-05-04 21:14 -22.96618 -47.23430 17312 ft 376 kts 131°
2026-05-04 21:14 -22.98251 -47.21231 16914 ft 373 kts 131°
2026-05-04 21:14 -22.99877 -47.19041 16521 ft 370 kts 131°
2026-05-04 21:14 -23.01422 -47.17045 16140 ft 365 kts 139°
2026-05-04 21:15 -23.02975 -47.15813 15841 ft 358 kts 154°
2026-05-04 21:15 -23.05242 -47.14872 15470 ft 350 kts 169°
2026-05-04 21:15 -23.07612 -47.14323 15098 ft 347 kts 172°
2026-05-04 21:15 -23.09979 -47.13840 14712 ft 345 kts 172°
2026-05-04 21:16 -23.12330 -47.13364 14329 ft 343 kts 172°
2026-05-04 21:16 -23.14674 -47.12875 13935 ft 342 kts 171°
2026-05-04 21:16 -23.17009 -47.12375 13498 ft 341 kts 171°
2026-05-04 21:16 -23.19331 -47.11867 13101 ft 338 kts 171°
2026-05-04 21:17 -23.21606 -47.11366 12716 ft 336 kts 171°
2026-05-04 21:17 -23.23878 -47.10865 12393 ft 331 kts 171°
2026-05-04 21:17 -23.26139 -47.10367 11971 ft 331 kts 170°
2026-05-04 21:17 -23.28395 -47.09872 11575 ft 330 kts 170°
2026-05-04 21:18 -23.30640 -47.09381 11184 ft 329 kts 170°
2026-05-04 21:18 -23.32892 -47.08888 10795 ft 329 kts 170°
2026-05-04 21:18 -23.35135 -47.08396 10387 ft 329 kts 170°
2026-05-04 21:18 -23.37373 -47.07906 10017 ft 328 kts 170°
2026-05-04 21:19 -23.39552 -47.07419 10035 ft 313 kts 167°
2026-05-04 21:19 -23.41492 -47.06435 9955 ft 305 kts 142°
2026-05-04 21:19 -23.42880 -47.04747 9879 ft 295 kts 121°
2026-05-04 21:19 -23.43658 -47.02715 9637 ft 291 kts 107°
2026-05-04 21:20 -23.44218 -47.00595 9292 ft 289 kts 105°
2026-05-04 21:20 -23.44744 -46.98486 8831 ft 288 kts 104°
2026-05-04 21:20 -23.45270 -46.96381 8361 ft 288 kts 105°
2026-05-04 21:20 -23.45800 -46.94284 7945 ft 286 kts 105°
2026-05-04 21:21 -23.46270 -46.92442 7576 ft 284 kts 105°
2026-05-04 21:21 -23.46791 -46.90418 7481 ft 266 kts 105°
2026-05-04 21:21 -23.47275 -46.88545 7353 ft 249 kts 105°
2026-05-04 21:21 -23.47680 -46.86981 7246 ft 234 kts 105°
2026-05-04 21:22 -23.48106 -46.85336 7134 ft 217 kts 105°
2026-05-04 21:22 -23.48503 -46.83801 6931 ft 208 kts 105°
2026-05-04 21:22 -23.48892 -46.82299 6641 ft 206 kts 105°
2026-05-04 21:22 -23.49278 -46.80809 6252 ft 204 kts 105°
2026-05-04 21:23 -23.49661 -46.79333 5882 ft 201 kts 104°
2026-05-04 21:23 -23.50037 -46.77877 5541 ft 197 kts 104°
2026-05-04 21:23 -23.50402 -46.76464 5273 ft 188 kts 104°
2026-05-04 21:23 -23.50750 -46.75120 5024 ft 180 kts 104°
2026-05-04 21:24 -23.51212 -46.73872 4819 ft 180 kts 128°
2026-05-04 21:24 -23.52109 -46.72917 4684 ft 184 kts 144°
2026-05-04 21:24 -23.53176 -46.72158 4540 ft 178 kts 147°
2026-05-04 21:24 -23.54204 -46.71461 4337 ft 167 kts 147°
2026-05-04 21:25 -23.55183 -46.70801 4182 ft 165 kts 149°
2026-05-04 21:25 -23.56163 -46.70166 3972 ft 163 kts 147°
2026-05-04 21:25 -23.57119 -46.69507 3802 ft 161 kts 146°
2026-05-04 21:25 -23.58058 -46.68853 3595 ft 159 kts 146°
2026-05-04 21:26 -23.58983 -46.68208 3388 ft 156 kts 147°
2026-05-04 21:26 -23.59896 -46.67571 3141 ft 154 kts 149°
2026-05-04 21:26 -23.60789 -46.66950 2937 ft 150 kts 148°
2026-05-04 21:26 -23.61667 -46.66338 2732 ft 149 kts 148°
2026-05-04 21:27 -23.62501 -46.65756 2612 ft 131 kts 149°
2026-05-04 21:27 -23.63072 -46.65365 2609 ft 46 kts 148°
2026-05-04 21:27 -23.63262 -46.65234 2608 ft 19 kts 147°
2026-05-04 21:27 -23.63350 -46.65206 2606 ft 13 kts 181°
2026-05-04 21:28 -23.63405 -46.65253 2601 ft 8 kts 267°
2026-05-04 21:28 -23.63373 -46.65301 2601 ft 8 kts 325°
2026-05-04 21:28 -23.63327 -46.65335 2601 ft 8 kts 326°
2026-05-04 21:28 -23.63282 -46.65366 2601 ft 8 kts 329°
2026-05-04 21:29 -23.63238 -46.65396 2601 ft 7 kts 326°
2026-05-04 21:29 -23.63196 -46.65425 2601 ft 7 kts 327°
2026-05-04 21:29 -23.63155 -46.65454 2601 ft 7 kts 328°
2026-05-04 21:29 -23.63114 -46.65481 2601 ft 7 kts 328°
2026-05-04 21:30 -23.63074 -46.65507 2601 ft 7 kts 334°
2026-05-04 21:30 -23.63030 -46.65519 2602 ft 7 kts 350°
2026-05-04 21:30 -23.62988 -46.65534 2602 ft 6 kts 333°
2026-05-04 21:30 -23.62950 -46.65559 2602 ft 6 kts 327°
2026-05-04 21:31 -23.62878 -46.65609 2602 ft 6 kts 328°
2026-05-04 21:31 -23.62843 -46.65633 2602 ft 6 kts 326°
2026-05-04 21:31 -23.62809 -46.65657 2602 ft 6 kts 328°
2026-05-04 21:32 -23.62774 -46.65680 2602 ft 6 kts 328°
2026-05-04 21:32 -23.62750 -46.65712 2601 ft 6 kts 278°
2026-05-04 21:32 -23.62767 -46.65751 2600 ft 6 kts 238°
2026-05-04 21:32 -23.62782 -46.65778 2600 ft 0 kts 238°